Weather in El Salvador

Chile     26°14′47″S   69°37′34″W
temp.,
°C
wind,
m/s
gust,
m/s
humid.,
%
clouds,
%
prec.,
mm/h
press.,
hPa
HPBL,
m
7 march, sun
sun700:00+13sw00530 0.0 101623
03:00+12nnw11560 0.0 101623
06:00+11ene01660 0.0 101623
09:00+19n11340 0.0 101794
12:00+24wsw43270 0.0 1015805
15:00+27w75210 0.0 10131475
18:00+24w65240 0.0 1012993
21:00+15n01410 0.0 101623
8 march, mon
mon800:00+13ssw01480 0.0 101623
03:00+13ne11490 0.0 101623
06:00+11nne11580 0.0 101623
09:00+19n11310 0.0 101895
12:00+24w53240 0.0 1016880
15:00+26w63220 0.0 10131396
18:00+24w64280 0.0 1012984
21:00+14wsw11580 0.0 101523
9 march, tue
tue900:00+12wnw00620 0.0 101623
03:00+11ene01720 0.0 101523
06:00+11ese11720 0.0 101523
09:00+18nw00400 0.0 101639
12:00+24w53260 0.0 1014701
15:00+26wsw65200 0.0 10121163
18:00+23wsw64320 0.0 1012919
21:00+14wsw11640 0.0 101523
10 march, wed
wed1000:00+12ne11710 0.0 101723
03:00+11w11814 0.0 101723
06:00+10wsw11830 0.0 101823
09:00+15wsw11540 0.0 101844
12:00+20w43430 0.0 1016581
15:00+24wsw54310 0.0 10141120
18:00+21w65420 0.0 1014880
21:00+13w11762 0.0 101623
11 march, thu
thu1100:00+12wsw008038 0.0 101723
03:00+11ne118527 0.0 101623
06:00+10n01850 0.0 101523
09:00+17nnw11530 0.0 1016126
12:00+22w43350 0.0 1013975
15:00+24w75306 0.0 10121537
18:00+21w644394 0.0 10121097
21:00+13wsw117874 0.0 101423